TimePDT,TemperatureF,Dew PointF,Humidity,Sea Level PressureIn,VisibilityMPH,Wind Direction,Wind SpeedMPH,Gust SpeedMPH,PrecipitationIn,Events,Conditions,WindDirDegrees,DateUTC
12:53 AM,62.1,61.0,96,29.64,4.0,ESE,5.8,-,0.01,Rain,Light Rain,110,2013-06-24 07:53:00
1:08 AM,62.6,60.8,94,29.64,3.0,SE,6.9,-,0.12,Rain,Heavy Rain,130,2013-06-24 08:08:00
1:53 AM,63.0,60.1,90,29.65,10.0,SSW,15.0,-,0.18,,Overcast,200,2013-06-24 08:53:00
2:29 AM,62.6,59.0,88,29.66,10.0,SSW,15.0,21.9,N/A,,Mostly Cloudy,210,2013-06-24 09:29:00
2:53 AM,61.0,57.0,87,29.67,10.0,SSW,10.4,-,N/A,,Overcast,200,2013-06-24 09:53:00
3:53 AM,59.0,55.0,87,29.69,10.0,South,9.2,-,N/A,,Overcast,180,2013-06-24 10:53:00
4:53 AM,57.9,54.0,87,29.70,10.0,South,10.4,-,N/A,,Overcast,190,2013-06-24 11:53:00
5:53 AM,57.0,54.0,89,29.70,10.0,South,8.1,-,N/A,,Overcast,180,2013-06-24 12:53:00
6:53 AM,57.9,53.1,84,29.71,10.0,South,8.1,-,N/A,,Overcast,180,2013-06-24 13:53:00
7:53 AM,59.0,53.1,81,29.72,10.0,South,5.8,-,N/A,,Overcast,170,2013-06-24 14:53:00
8:53 AM,60.1,52.0,75,29.73,10.0,South,6.9,-,N/A,,Overcast,180,2013-06-24 15:53:00
9:53 AM,60.1,52.0,75,29.72,10.0,South,8.1,-,0.00,,Overcast,190,2013-06-24 16:53:00
10:53 AM,60.1,53.1,78,29.72,10.0,SSW,6.9,-,0.00,Rain,Light Rain,210,2013-06-24 17:53:00
11:53 AM,61.0,53.1,75,29.72,10.0,South,6.9,-,0.00,,Overcast,190,2013-06-24 18:53:00
12:53 PM,63.0,52.0,67,29.71,10.0,SSW,9.2,-,N/A,,Overcast,200,2013-06-24 19:53:00
1:12 PM,64.4,51.8,64,29.71,10.0,SSW,3.5,-,N/A,,Overcast,210,2013-06-24 20:12:00
1:53 PM,64.9,51.1,61,29.70,10.0,SW,4.6,-,0.00,,Mostly Cloudy,220,2013-06-24 20:53:00
2:53 PM,68.0,51.1,55,29.70,10.0,SSW,10.4,-,N/A,,Mostly Cloudy,200,2013-06-24 21:53:00
3:53 PM,66.0,48.9,54,29.70,10.0,SSW,12.7,-,N/A,,Mostly Cloudy,200,2013-06-24 22:53:00
4:53 PM,68.0,51.1,55,29.70,10.0,SW,9.2,16.1,N/A,,Overcast,220,2013-06-24 23:53:00
5:53 PM,64.9,51.1,61,29.71,10.0,SSW,12.7,-,N/A,,Overcast,200,2013-06-25 00:53:00
6:53 PM,64.9,51.1,61,29.71,10.0,SW,4.6,-,0.00,,Overcast,220,2013-06-25 01:53:00
7:53 PM,64.0,51.1,63,29.71,10.0,SSW,5.8,-,N/A,,Overcast,200,2013-06-25 02:53:00
8:53 PM,63.0,52.0,67,29.70,10.0,SSE,4.6,-,N/A,,Overcast,150,2013-06-25 03:53:00
9:53 PM,61.0,53.1,75,29.71,10.0,SE,8.1,-,0.00,Rain,Light Rain,140,2013-06-25 04:53:00
10:53 PM,60.1,55.9,86,29.71,10.0,East,4.6,-,0.01,Rain,Light Rain,90,2013-06-25 05:53:00
11:53 PM,59.0,55.9,90,29.70,10.0,East,5.8,-,0.02,,Overcast,100,2013-06-25 06:53:00